Location: Challaboinapalle
(16.7625°N, 80.9876°E)
Time: 10:06:30
(UTC+00:00)

Daily predictions for brighter satellites

Satellite Brightness Start Highest point End
(mag) Time Altitude Azimuth Time Altitude Azimuth Time Altitude Azimuth
Atlas Centaur 2 4.1 13:26:37 10° NW 13:30:10 17° N 13:33:16 10° NNE
Centaur D AC-28 3.3 13:27:53 10° W 13:31:34 42° N 13:39:53 10° ENE
H-2A R/B 3.4 13:30:13 10° S 13:34:02 47° WSW 13:37:46 10° NNW
Cosmos-2242 3.1 13:30:48 10° N 13:34:56 53° E 13:39:04 10° SSE
GPS 2-18 Rocket1 4.3 13:34:45 10° SW 13:37:57 25° SSE 13:41:02 10° ESE
Cosmos 1689 Rocket 2.9 13:37:04 10° NE 13:39:23 24° E 13:41:40 10° SSE
Cosmos 773 Rocket 4.3 13:36:12 10° SSW 13:41:24 72° WNW 13:46:35 10° N
Aurora 2 Rocket 3.9 13:35:56 10° W 13:41:30 67° NNW 13:49:40 10° ENE
Palapa 6 Rocket 3.2 13:39:15 10° W 13:43:32 60° NNW 13:47:18 10° ENE
Cosmos 2034 Rocket 4.5 13:38:35 10° N 13:44:49 69° W 13:51:07 10° S
USA 186 3.7 13:46:25 12° E 13:47:14 13° ENE 13:48:47 10° NE
Cosmos 158 Rocket 4.5 13:44:40 10° SSE 13:49:13 35° E 13:53:53 10° NE
USA 238 DEB 4.0 13:42:22 10° NNW 13:49:56 88° WSW 13:57:39 10° SSE
USA 238 4.0 13:42:28 10° NNW 13:50:03 89° WSW 13:57:45 10° SSE
Cosmos 1869 3.2 13:46:22 10° N 13:50:09 61° E 13:53:57 10° SSE
Cosmos 1825 2.8 13:48:06 10° SSW 13:51:47 58° W 13:55:28 10° N
Cosmos 1437 Rocket 3.1 13:47:59 10° N 13:51:48 46° E 13:55:41 10° SSE
Cosmos 1437 4.1 13:51:31 10° NE 13:53:18 16° E 13:53:25 16° E
Cosmos 1980 Rocket 4.0 13:57:13 10° NE 13:59:36 13° ENE 14:00:54 12° E
SJ-6B 4.3 14:00:37 16° E 14:01:09 17° ENE 14:03:35 10° NE
Cosmos 2084 3.6 13:57:23 10° S 14:01:10 41° ESE 14:04:57 10° NE
YAOGAN 1 3.3 13:57:04 10° S 14:01:18 55° W 14:05:31 10° NNW
CSL-04 Rocket 3.8 13:59:36 10° SSE 14:04:56 55° ENE 14:10:12 10° N
Cosmos 2221 3.7 14:04:02 10° NNE 14:07:27 23° E 14:08:11 22° E
Helios 1A Rocket 4.1 14:12:24 23° E 14:12:53 23° ENE 14:16:07 10° NNE
Okean-O 2.9 14:09:16 10° S 14:13:39 67° WSW 14:18:02 10° NNW
Cosmos 1125 Rocket 4.2 14:11:42 10° NNW 14:16:52 56° WSW 14:22:01 10° S
NOSS 2-1 (E) 3.5 14:13:40 10° S 14:17:46 41° ESE 14:21:05 10° NE
USA 307 4.4 14:15:21 10° WNW 14:19:08 32° WSW 14:22:27 12° S
ERBS 4.2 14:19:55 10° N 14:21:42 17° NE 14:21:42 17° NE
Cosmos 1634 Rocket 4.1 14:16:21 10° N 14:22:33 77° W 14:28:42 10° S
ASTRO E2 3.0 14:19:38 10° SW 14:23:21 41° SSE 14:23:41 40° SE
ERS-2 2.6 14:21:19 10° NNE 14:24:16 38° E 14:24:16 38° E
Cosmos 1680 Rocket 4.1 14:23:42 30° SE 14:24:52 33° E 14:29:33 10° NE
Meteor 2-3 Rocket 4.2 14:29:58 33° ESE 14:31:16 38° E 14:36:28 10° NNE
BREEZE-M R/B 4.4 14:10:41 10° SW 14:32:09 79° NW 14:36:56 10° NE
Hubble Space Telescope 2.1 14:31:46 10° NW 14:35:22 29° NNE 14:36:27 25° NE
OAO 2 Rocket 4.1 14:31:06 10° NW 14:35:53 41° NNE 14:37:21 33° ENE
Resurs 01 Rocket 3.9 14:38:34 11° NE 14:38:34 11° NE 14:39:02 10° NE
Cosmos 1076 Rocket 3.6 14:33:12 10° S 14:37:29 74° W 14:41:49 10° N
Cosmos 1633 3.3 14:35:28 11° SSW 14:38:51 51° W 14:42:21 10° N
Meteor 2-2 Rocket 4.1 14:34:32 10° N 14:40:14 88° E 14:43:38 25° S
Cosmos 2180 Rocket 4.4 14:34:20 10° N 14:40:24 63° E 14:43:04 34° SSE
Meteor 2-19 Rocket 4.4 14:38:33 28° SSE 14:41:39 56° E 14:47:32 10° NNE
GENESIS II 4.1 14:44:44 10° NNW 14:48:24 79° NNW 14:48:24 79° NNW
Cosmos 2360 4.1 14:46:30 10° NNW 14:52:12 89° WSW 14:53:54 48° SSE
ATLAS 2A CENTAUR R/B 4.0 14:06:13 10° WNW 14:52:21 83° SSW 14:57:24 39° ESE
Cosmos 2098 Rocket 3.7 14:52:56 34° WNW 14:52:56 34° WNW 14:55:27 10° NNW
Cosmos 1697 Rocket 2.8 14:48:25 10° NNW 14:54:02 72° WSW 14:56:10 39° S
Ariane Rocket 3.4 14:58:58 47° NE 14:58:58 47° NE 15:03:10 10° N
Cosmos 1092 Rocket 3.8 15:02:04 53° SSE 15:03:34 75° E 15:09:49 10° N
ATLAS 3B R/B 3.5 14:58:42 10° N 15:05:18 36° ENE 15:05:30 36° ENE
Delta 128 4.2 15:02:11 10° WSW 15:08:53 72° SSE 15:08:53 72° SSE
OBJECT-B 3.3 15:10:56 20° W 15:10:56 20° W 15:12:53 10° NW
Meteor 2-8 Rocket 4.3 15:04:58 10° N 15:10:59 71° E 15:10:59 71° E
Cosmos 2026 Rocket 3.9 15:13:00 70° E 15:13:00 70° E 15:19:07 10° N
Atlas Centaur 2 3.8 15:17:27 10° NNW 15:19:54 15° N 15:19:54 15° N
Sakura Rocket 4.3 15:10:46 10° WNW 15:20:32 90° NNE 15:21:41 70° ESE
Cosmos 2278 4.0 15:15:16 10° N 15:19:49 56° NNE 15:19:49 56° NNE
Cosmos 1980 Rocket 3.1 15:38:12 10° NNW 15:42:42 45° WNW 15:42:42 45° WNW
USA 215 3.8 21:24:53 10° NE 21:30:23 49° ESE 21:30:23 49° ESE
CZ-3 Stage 3 4.3 21:46:44 21° NNE 21:47:27 22° NNE 21:52:56 10° E
Longmarch 3A Rocket 4.2 21:50:42 27° SE 21:50:42 27° SE 21:52:34 10° E
ARIANE 5 R/B 3.9 21:48:44 10° N 21:51:27 31° N 21:51:27 31° N
Palapa B4 Rocket 3.9 21:59:53 85° ENE 21:59:53 85° ENE 22:08:19 10° E
Cosmos 1727 Rocket 4.1 21:53:36 10° N 21:58:58 66° NNW 21:58:58 66° NNW
PAYLOAD A 4.3 22:00:29 10° NNE 22:04:51 63° NNE 22:04:51 63° NNE
Okean 1 Rocket 4.5 22:10:07 32° N 22:10:07 32° N 22:12:31 10° N
Meteor 2-5 Rocket 3.7 22:06:28 10° N 22:12:15 80° E 22:13:31 55° SSE
DELTA 2 R/B (1) 4.5 22:14:22 36° SSE 22:14:48 36° SE 22:19:51 10° ENE
CZ-3 Stage 3 3.9 22:17:42 10° N 22:19:03 12° NNE 22:21:02 10° NE
Spot 4 Rocket 4.3 22:16:39 10° N 22:21:04 54° NW 22:21:04 54° NW
Cosmos 540 Rocket 3.4 22:17:20 10° N 22:22:30 81° ENE 22:25:01 31° SSE
Tiangong 4.1 22:23:42 12° ESE 22:23:42 12° ESE 22:24:16 10° ESE
Delta 198 4.3 22:27:53 34° NNE 22:27:53 34° NNE 22:30:46 10° ENE
NOSS 3-4 (A) 4.1 22:20:07 10° NNW 22:27:49 81° ENE 22:36:08 10° SSE
NOSS 3-4 (C) 4.1 22:20:13 10° NNW 22:27:56 80° ENE 22:36:14 10° SSE
Cosmos 724 4.3 22:26:55 50° SSW 22:28:41 89° ESE 22:34:55 10° NNE
Cosmos 2278 Rocket 2.1 22:28:24 62° W 22:28:53 65° WNW 22:34:29 10° N
Cosmos 1908 4.3 22:28:10 36° SE 22:28:59 42° E 22:32:36 10° NNE
Delta 128 3.7 22:29:12 61° NNW 22:29:45 69° NNE 22:34:21 10° ESE
ALOS 2.1 22:25:47 10° N 22:30:26 87° WNW 22:30:57 71° SSW
FENGYUN 3A 3.5 22:26:11 10° N 22:31:34 77° WNW 22:32:49 54° SSW
Cosmos 2123 Rocket 4.3 22:28:53 10° N 22:34:59 64° E 22:41:05 10° SSE
ATLAS 2AS CENTAUR R/B 4.0 22:30:33 10° N 22:36:50 39° ENE 22:42:44 10° SE
Delta 142 4.4 22:38:49 42° W 22:40:37 56° SSW 22:45:55 10° SE
Atlas 2A Centaur Rocket 3.8 22:41:11 11° N 22:41:23 11° N 22:42:06 10° NNE
Chandra Rocket (1) 4.4 22:45:53 12° S 22:45:53 12° S 22:46:16 10° SSE
CZ-2C R/B 3.7 22:39:18 10° N 22:41:56 34° NW 22:41:56 34° NW
TIMED 4.3 22:39:57 10° NNW 22:44:16 72° WSW 22:46:09 33° S
Cosmos 1486 Rocket 4.3 22:47:03 42° W 22:47:48 45° WNW 22:52:45 10° N
ASTRO E2 2.7 22:46:50 44° NW 22:47:59 76° NNE 22:51:57 10° ESE
SL-4 R/B 2.0 22:47:56 54° SSW 22:48:47 78° SE 22:53:05 10° NE
Cosmos 968 Rocket 4.5 22:49:24 27° WNW 22:49:24 27° WNW 22:53:22 10° NNW
IUS-17 SRM-1 2.6 22:49:37 48° NNW 22:49:59 54° NNE 22:52:12 10° E
CZ-2C R/B 3.6 22:51:41 10° NNW 22:54:58 23° WNW 22:54:58 23° WNW
Cosmos 1455 Rocket 3.0 22:58:53 26° SSW 23:01:20 65° W 23:05:44 10° N
Cosmos 1544 Rocket 3.9 22:58:53 10° S 23:03:15 66° E 23:07:37 10° NNE
ARIANE 5 DEB (SYLDA) 4.3 23:04:41 11° S 23:04:41 11° S 23:05:08 10° SSE
CZ-3 R/B 3.9 22:37:32 19° W 23:04:07 60° NNW 23:12:59 10° ENE
Cosmos 921 Rocket 3.1 23:00:12 10° N 23:04:43 84° ENE 23:09:11 10° SSE
Cosmos 1943 Rocket 3.6 23:00:05 10° S 23:05:04 36° ESE 23:10:03 10° NE
Milstar 3 4.1 22:59:44 10° WNW 23:05:53 33° N 23:12:04 10° ENE
SJ 16-02 3.7 23:04:44 10° SSE 23:08:07 22° E 23:11:29 10° NE
Cosmos 1953 2.7 23:07:01 31° SW 23:08:17 41° W 23:12:06 10° NNW
USA 81 4.4 23:03:21 10° S 23:08:33 65° E 23:13:44 10° N
SJ-6F 4.4 23:06:40 10° N 23:10:42 59° WNW 23:13:33 18° SSW
USA 215 4.4 23:08:32 10° N 23:13:52 28° NW 23:17:45 16° W
GPS 2-17 Rocket1 3.0 23:16:19 17° W 23:19:51 82° SSW 23:24:24 10° ESE
Envisat 4.1 23:15:33 10° NNE 23:20:23 44° E 23:25:11 10° S
Cosmos 2297 3.9 23:15:48 10° S 23:21:22 71° ESE 23:26:58 10° NNE
Cosmos 1441 Rocket 3.8 23:18:35 10° NNW 23:22:15 37° W 23:25:55 10° SSW
Cosmos 1300 3.0 23:19:07 10° S 23:22:53 68° E 23:26:39 10° N
Cosmos 1703 3.9 23:21:54 10° N 23:25:42 57° E 23:29:29 10° SSE
Cosmos 1484 Rocket 4.1 23:23:29 10° NNW 23:26:38 23° WNW 23:28:29 17° WSW
FALCON 9 R/B 2.8 23:25:17 10° NNW 23:27:15 20° NNE 23:31:15 10° ENE
MOS 1 Rocket 3.7 23:22:52 10° S 23:27:42 50° W 23:32:48 10° NNW
YAOGAN 6 3.6 23:24:24 10° NNE 23:27:57 48° E 23:31:31 10° S
SJ-12 3.9 23:24:05 10° N 23:28:12 87° WNW 23:32:20 10° SSW
CZ-2C R/B 1.3 23:26:48 17° SW 23:29:54 73° SSE 23:33:45 10° ENE
Meteor 2-11 Rocket 4.5 23:26:16 10° S 23:32:23 87° E 23:38:27 10° N
CZ-3B R/B 3.5 23:21:09 10° WNW 23:32:52 64° NNE 23:38:03 10° E
GPS 2-14 Rocket1 3.8 23:31:36 13° SW 23:34:40 34° SSE 23:38:21 10° E
USA 281 4.1 23:29:23 10° SE 23:35:45 55° ENE 23:42:08 10° N
NATO 3D Rocket 3.6 23:31:57 10° WNW 23:36:36 70° NNE 23:41:58 10° E
Lacrosse 5 rocket 1.8 23:34:07 12° SW 23:38:14 53° WNW 23:42:31 10° NNE
Cosmos 1777 Rocket 4.0 23:36:36 10° SSW 23:41:49 70° WNW 23:47:04 10° N
Delta 168 4.3 23:42:20 10° SSW 23:45:40 31° SSE 23:50:09 10° E
Cosmos 2100 Rocket 4.1 23:39:30 10° SSW 23:45:46 64° W 23:52:00 10° N
Cosmos 1802 Rocket 4.1 23:42:38 10° S 23:48:55 87° W 23:55:17 10° N
Okean 1-7 Rocket 3.6 23:45:45 10° N 23:50:19 85° W 23:54:53 10° S
Cosmos 1833 Rocket 2.8 23:46:52 10° NNW 23:52:28 82° ENE 23:58:04 10° SSE
